Flag for Germany Weather past 2 weeks in Schwerin, Mecklenburg-Western Pomerania, Germany

44 °F


Feels Like: 40 °F
Forecast: 41 / 46 °F
Wind: 8 mph from Southwest

Location: Schwerin

Current Time: Nov 29, 2015 at 10:40:32 AM

Latest Report: Nov 29, 2015 at 10:00 AM

Visibility: 18 mi

Pressure: 29.60 "Hg

Humidity: 89%

Dew point: 41 °F

Location of SchwerinLocation

Historic Weather in Schwerin — Graph


Schwerin temperature yesterday

Maximum temperature yesterday: 42 °F (at 2:00 PM)
Minimum temperature yesterday: 32 °F (at 3:00 AM)
Average temperature yesterday: 36 °F

Past Weeks' High & Low Weather Summary

High56 °F (Nov 18, 1:00 AM)100% (Nov 15, 10:00 AM)30.18 "Hg (Nov 15, 10:00 AM)
Low31 °F (Nov 27, 3:00 AM)47% (Nov 23, 1:00 PM)29.29 "Hg (Nov 21, 4:00 AM)
Average42 °F89%29.71 "Hg
* Reported Nov 14 9:00 AM — Nov 29 9:00 AM, Schwerin, Weather by CustomWeather, © 2015

Note: Actual official high and low records may vary slightly from our data, if they occured in-between our weather recording intervals... More about our weather records


Schwerin weather history for previous 24 hours

Time TempWeatherWind HumidityBarometerVisibility
9:00 AM
Sun, Nov 29
43 °FOvercast.9 mph92%29.59 "Hg11 mi
7:00 AM42 °FDrizzle. Overcast.8 mph93%29.59 "Hg13 mi
5:00 AM39 °FLight freezing rain. Low clouds.9 mph93%29.59 "Hg8 mi
4:00 AM38 °FDrizzle. Overcast.9 mph92%29.61 "Hg11 mi
3:00 AM38 °FLight rain. Overcast.9 mph91%29.63 "Hg6 mi
2:00 AM39 °FLight rain. Overcast.8 mph86%29.66 "Hg7 mi
9:00 PM
Sat, Nov 28
37 °FOvercast.6 mph90%29.80 "Hg18 mi
8:00 PM38 °FPassing clouds.6 mph87%29.81 "Hg17 mi
7:00 PM39 °FDrizzle. Overcast.7 mph88%29.81 "Hg17 mi
6:00 PM40 °FOvercast.8 mph87%29.80 "Hg22 mi
5:00 PM40 °FOvercast.6 mph85%29.78 "Hg19 mi
4:00 PM41 °FScattered clouds.6 mph84%29.76 "Hg22 mi
3:00 PM42 °FPassing clouds.6 mph84%29.73 "Hg25 mi
2:00 PM42 °FPartly sunny.7 mph88%29.71 "Hg28 mi
1:00 PM40 °FLight rain. Low clouds.6 mph96%29.68 "Hg8 mi
12:00 PM37 °FLight rain. Low clouds.6 mph97%29.65 "Hg3 mi
11:00 AM33 °FLight rain. Low clouds.6 mph97%29.63 "Hg2 mi
10:00 AM33 °FSnow. Low clouds.7 mph97%29.62 "Hg1 mi
Weather by CustomWeather, © 2015

See weather overviewHow to use our weather pages